星链-1994 (STARLINK-1994 )

导读 | 豆包AI

STARLINK-1994是美国SpaceX公司于2021年2月4日发射的星链系列卫星,属于Starlink全球低轨卫星互联网星座组网的一环。它运行在近地轨道,依托星链星座的规模优势,为传统网络覆盖不足区域提供互联网接入服务,具备低延迟、高带宽的通信特性,助力实现全球高速互联网覆盖,支撑星链民用通信与潜在特种服务场景。

基本信息
目录编号:
47589
目录名称:
STARLINK-1994
国际标识:
2021-009AT
轨道中心:
EARTH
卫星名称:
星链-1994
卫星全名:
星链-1994 (STARLINK-1994 )
卫星状态:
在轨 (已飞行1864 天)
发射日期:
2021-02-04 UTC
国别 :
美国 (US)
星等 :
--
轨道信息
数据来源 国际轨道数据
星历时间: 2026-03-14T06:45:27+0800
11小时前
查看轨道信息
半长轴: 6772.023km
偏心率: 0.0008956
轨道倾角: 53.049°
近地点辐角 114.243°
升交点赤经 341.497°
平近点角 245.952°
近地点: 387.82km
远地点: 399.952km
周期: 92.435分钟
每日圈数: 15.578484
详细信息
固有亮度:
5
最大亮度:
2.5
卫星平台:
Starlink V1.0
覆盖范围:
全球
运营商:
太空探索技术公司
运营商所在国:
美国
制造商(研发单位):
太空探索技术公司
制造商所在国:
美国
使用方式:
暂无
卫星简介
星链(Starlink)计划是由太空探索技术公司(SpaceX)提出的一个巨型低轨卫星互联网星座项目,计划在2019年至2024年间在太空搭建由约1.2万颗卫星组成的“星链”网络,其中1584颗将部署在地球上空550千米处的近地轨道,并从2020年开始工作。该卫星仍在工作。
2D轨道图
3D轨道图
轨道高度分析图
轨道倾角分析图
轨道综合分析图
查看轨道综合分析图